Location: Peebles
(55.6412°N, 3.1714°W)
Time: 21:20:57
(UTC+00:00)

deb Agena D - Pass Details

Date: 23 September 2023
Orbit: 794 x 979 km, 99.8° (Epoch: 28 November)

Event Time Altitude Azimuth Distance (km) Brightness Sun altitude
Rises 23:27:01 0° 26° (NNE) 3,696 10.0 -31.1°
Reaches altitude 10° 23:30:47 10° 49° (NE) 2,739 9.0 -31.4°
Enters shadow 23:32:19 13° 63° (ENE) 2,492 8.6 -31.5°
